STARLINK-11550 [DTC] (63052 NORAD) Tracking and Keplerian Element Data

This shows tracking and keplerian element data for the satellite.

Feedback or suggestion? Click here.




ElementValue
Catalog63052
NameSTARLINK-11550 [DTC]
Epoch Orbit4864
Epoch Day353.70452354
Epoch Year2025
RAAN137.2584
Inclination42.999
Eccentricity0.000156
Argument of Perigee274.9983
Mean Anonmoly85.0706
Mean Motion15.70919907
Decay Rate0.00166078
L11 63052U 25035A 25353.70452354 .00166078 00000+0 12678-2 0 9992
L22 63052 42.9990 137.2584 0001560 274.9983 85.0706 15.70919907 48641



Live tracking and technical data element details for STARLINK-11550 [DTC] (NORAD 63052). STARLINK-11550 [DTC] can be tracked NOW for your location showing map with azimuth and elevation plus other details from your city location.







IsCatalogInMostPopularTable: catalog: 63052, numindb: 2
Update: records affected: 1



GetName: 63052 STARLINK-11550 [DTC]

Hit Count: updated at: Sat, 07 Feb 2026 07:24:49 GMT